Location: Cahas Mountain Overlook
(37.0833°N, 80.1000°W)
Time: 22:19:16
(UTC-05:00)

Courier 1B Rocket - All Passes

Search period start: 27 January 2022 00:00
Search period end: 06 February 2022 00:00
Orbit: 920 x 1202 km, 28.2° (Epoch: 27 January)

Date Brightness Start Highest point End Pass type
(mag) Time Alt. Az. Time Alt. Az. Time Alt. Az.
27 Jan - 01:34:13 10° WSW 01:41:05 39° S 01:47:32 10° ESE night (unlit)
27 Jan - 03:27:32 10° WSW 03:34:10 39° S 03:40:23 10° ESE visible
27 Jan - 05:21:40 10° WSW 05:26:58 24° SSW 05:32:01 10° SSE visible
27 Jan - 22:41:59 10° SSW 22:47:03 19° SSE 22:52:01 10° ESE night (unlit)
28 Jan - 00:33:12 10° SW 00:40:01 35° SSE 00:46:30 10° ESE night (unlit)
28 Jan - 02:26:14 10° WSW 02:33:09 42° S 02:39:38 10° ESE night (unlit)
28 Jan - 04:20:04 10° WSW 04:26:07 30° SSW 04:31:49 10° SE visible
28 Jan - 06:16:01 10° SW 06:18:38 12° SSW 06:21:12 10° S visible
28 Jan - 21:42:32 10° S 21:46:05 14° SSE 21:49:35 10° SE night (unlit)
28 Jan - 23:32:23 10° SW 23:38:57 30° SSE 23:45:18 10° ESE night (unlit)
29 Jan - 01:25:01 10° WSW 01:32:05 42° S 01:38:46 10° ESE night (unlit)
29 Jan - 03:18:36 10° WSW 03:25:11 36° SSW 03:31:21 10° SE visible
29 Jan - 05:13:20 10° WSW 05:17:53 18° SSW 05:22:14 10° SSE visible
29 Jan - 22:31:49 10° SSW 22:37:54 25° SSE 22:43:52 10° ESE night (unlit)
30 Jan - 00:23:52 10° WSW 00:30:59 40° S 00:37:46 10° ESE night (unlit)
30 Jan - 02:17:13 10° WSW 02:24:10 40° S 02:30:42 10° ESE night (unlit)
30 Jan - 04:11:24 10° WSW 04:17:03 25° SSW 04:22:24 10° SSE visible
30 Jan - 21:31:40 10° SSW 21:36:53 19° SSE 21:42:05 10° ESE visible
30 Jan - 23:22:53 10° SW 23:29:52 36° SSE 23:36:39 10° ESE night (unlit)
31 Jan - 01:15:54 10° WSW 01:23:05 43° S 01:29:54 10° ESE night (unlit)
31 Jan - 03:09:45 10° WSW 03:16:08 31° SSW 03:22:10 10° SE visible
31 Jan - 05:05:40 10° SW 05:08:44 13° SSW 05:11:44 10° S visible
31 Jan - 20:32:14 10° S 20:35:55 14° SSE 20:39:36 10° ESE visible
31 Jan - 22:22:06 10° SW 22:28:46 31° SSE 22:35:21 10° ESE night (unlit)
01 Feb - 00:14:41 10° WSW 00:21:57 43° S 00:28:57 10° ESE night (unlit)
01 Feb - 02:08:16 10° WSW 02:15:08 37° SSW 02:21:38 10° SE night (unlit)
01 Feb - 04:03:01 10° WSW 04:07:55 19° SSW 04:12:38 10° SSE visible
01 Feb - 21:21:35 10° SSW 21:27:42 26° SSE 21:33:50 10° ESE visible
01 Feb - 23:13:35 10° WSW 23:20:48 41° S 23:27:52 10° ESE night (unlit)
02 Feb - 01:06:53 10° WSW 01:14:03 41° S 01:20:55 10° ESE night (unlit)
02 Feb - 03:01:05 10° WSW 03:07:02 26° SSW 03:12:43 10° SSE visible
02 Feb - 20:21:30 10° SSW 20:26:41 20° SSE 20:31:57 10° ESE visible
02 Feb - 22:12:39 10° SW 22:19:39 37° SSE 22:26:38 10° ESE visible
03 Feb - 00:05:36 10° WSW 00:12:55 44° S 00:20:01 10° ESE night (unlit)
03 Feb - 01:59:26 10° WSW 02:06:03 32° SSW 02:12:24 10° SE night (unlit)
03 Feb - 03:55:14 10° WSW 03:58:44 14° SSW 04:02:09 10° S visible
03 Feb - 19:22:11 10° S 19:25:45 14° SSE 19:29:23 10° ESE visible
03 Feb - 21:11:56 10° SW 21:18:33 32° SSE 21:25:15 10° ESE visible
03 Feb - 23:04:26 10° WSW 23:11:45 44° S 23:18:58 10° ESE night (unlit)
04 Feb - 00:57:57 10° WSW 01:05:00 38° SSW 01:11:48 10° SE night (unlit)
04 Feb - 02:52:40 10° WSW 02:57:52 20° SSW 03:02:54 10° SSE night (unlit)
04 Feb - 20:11:31 10° SSW 20:17:30 26° SSE 20:23:39 10° ESE visible
04 Feb - 22:03:25 10° WSW 22:10:34 41° S 22:17:47 10° ESE visible
04 Feb - 23:56:37 10° WSW 00:03:52 42° S 00:10:58 10° ESE night (unlit)
05 Feb - 01:50:45 10° WSW 01:56:56 26° SSW 02:02:54 10° SSE night (unlit)
05 Feb - 19:11:32 10° SSW 19:16:32 19° SSE 19:21:42 10° ESE visible
05 Feb - 21:02:34 10° SW 21:09:26 37° SSE 21:16:28 10° ESE visible
05 Feb - 22:55:24 10° WSW 23:02:42 44° S 23:09:59 10° ESE night (unlit)
